Tracking 19564 objects as of 19-Mar-2019
HD Live streaming from Space Station
objects crossing your sky now

FENGYUN 1C DEB

Track FENGYUN 1C DEB now!
10-day predictions


NORAD ID: 30454
Int'l Code: 1999-025AFR
Perigee: 760.1 km
Apogee: 1,078.0 km
Inclination: 98.1 °
Period: 103.2 minutes
Semi major axis: 7290 km
RCS: 0.027 m2 (small)
Launch date: May 10, 1999
Source: People's Republic of China (PRC)
Launch site: Taiyaun Space Center, China (TSC)

Note: This is SATELLITE DEBRIS
aabbcc
Your satellite tracking list
Your tracking list is empty




NASA's NSSDC Master Catalog

Two Line Element Set (TLE):
1 30454U 99025AFR 19077.50374723 +.00000741 +00000-0 +47640-3 0  9992
2 30454 098.1292 283.7471 0218032 338.3001 080.5492 13.94777828615124
Source of the keplerian elements: AFSPC